TimeEDT,TemperatureF,Dew PointF,Humidity,Sea Level PressureIn,VisibilityMPH,Wind Direction,Wind SpeedMPH,Gust SpeedMPH,PrecipitationIn,Events,Conditions,WindDirDegrees,DateUTC
12:53 AM,59.0,55.0,87,29.91,10.0,SSW,5.8,-,N/A,,Clear,210,2012-10-15 04:53:00
1:53 AM,59.0,55.0,87,29.89,10.0,SSW,5.8,-,N/A,,Clear,200,2012-10-15 05:53:00
2:53 AM,60.1,55.9,86,29.86,10.0,SSW,9.2,-,N/A,,Scattered Clouds,200,2012-10-15 06:53:00
3:53 AM,60.1,55.9,86,29.83,10.0,SSW,3.5,-,N/A,,Partly Cloudy,200,2012-10-15 07:53:00
4:53 AM,60.1,55.9,86,29.81,10.0,Calm,Calm,-,N/A,,Scattered Clouds,0,2012-10-15 08:53:00
5:53 AM,62.1,55.9,80,29.78,10.0,SSW,6.9,-,N/A,,Clear,210,2012-10-15 09:53:00
6:53 AM,64.0,57.0,78,29.78,10.0,SW,9.2,-,N/A,,Clear,230,2012-10-15 10:53:00
7:53 AM,64.9,57.0,75,29.77,10.0,SW,8.1,-,N/A,,Clear,230,2012-10-15 11:53:00
8:53 AM,66.0,57.9,75,29.77,10.0,SW,9.2,-,N/A,,Partly Cloudy,220,2012-10-15 12:53:00
9:53 AM,68.0,57.9,70,29.76,10.0,SW,15.0,21.9,N/A,,Mostly Cloudy,230,2012-10-15 13:53:00
10:53 AM,68.0,57.9,70,29.75,10.0,SW,10.4,-,N/A,,Overcast,230,2012-10-15 14:53:00
11:53 AM,66.9,57.9,73,29.74,10.0,WSW,13.8,20.7,0.00,,Overcast,250,2012-10-15 15:53:00
12:53 PM,68.0,59.0,73,29.72,10.0,WSW,15.0,24.2,0.00,,Mostly Cloudy,250,2012-10-15 16:53:00
1:53 PM,64.9,61.0,87,29.70,6.0,SW,8.1,-,0.02,Rain,Light Rain,230,2012-10-15 17:53:00
2:53 PM,64.9,62.1,90,29.67,10.0,WSW,9.2,-,0.01,,Overcast,240,2012-10-15 18:53:00
3:16 PM,64.4,62.6,94,29.70,9.0,WSW,10.4,-,N/A,,Overcast,250,2012-10-15 19:16:00
3:37 PM,64.4,62.6,94,29.69,2.5,West,8.1,-,0.04,Rain,Light Rain,260,2012-10-15 19:37:00
3:45 PM,64.4,62.6,94,29.68,4.0,WSW,6.9,-,0.05,Rain,Rain,250,2012-10-15 19:45:00
3:53 PM,64.0,62.1,93,29.66,4.0,SW,6.9,-,0.06,Rain,Light Rain,220,2012-10-15 19:53:00
4:18 PM,64.4,62.6,94,29.67,4.0,Calm,Calm,-,0.02,Rain,Light Rain,0,2012-10-15 20:18:00
4:36 PM,64.4,62.6,94,29.66,6.0,South,3.5,-,0.02,Rain,Light Rain,190,2012-10-15 20:36:00
4:53 PM,64.0,62.1,93,29.65,6.0,Variable,5.8,-,0.02,Rain,Light Rain,0,2012-10-15 20:53:00
5:00 PM,64.4,62.6,94,29.66,2.5,NW,8.1,-,0.09,Rain,Heavy Rain,310,2012-10-15 21:00:00
5:08 PM,64.4,62.6,94,29.66,1.5,NW,5.8,-,0.20,Rain,Heavy Rain,320,2012-10-15 21:08:00
5:14 PM,62.6,62.6,100,29.67,1.0,WNW,9.2,-,0.36,Rain,Heavy Rain,300,2012-10-15 21:14:00
5:21 PM,62.6,60.8,94,29.66,0.5,West,8.1,-,0.58,Fog-Rain,Heavy Rain,270,2012-10-15 21:21:00
5:28 PM,62.6,60.8,94,29.67,2.0,West,6.9,-,0.59,Rain,Light Rain,270,2012-10-15 21:28:00
5:31 PM,62.6,60.8,94,29.66,6.0,West,5.8,-,0.59,Rain,Light Rain,280,2012-10-15 21:31:00
5:43 PM,62.6,60.8,94,29.66,7.0,West,3.5,-,0.59,Rain,Light Rain,280,2012-10-15 21:43:00
5:53 PM,63.0,61.0,93,29.64,7.0,West,4.6,-,0.59,Rain,Light Rain,270,2012-10-15 21:53:00
6:23 PM,62.6,60.8,94,29.68,10.0,WNW,5.8,-,0.01,,Overcast,290,2012-10-15 22:23:00
6:53 PM,62.1,59.0,90,29.66,10.0,WNW,3.5,-,0.01,,Overcast,300,2012-10-15 22:53:00
7:53 PM,60.1,57.9,93,29.66,10.0,Calm,Calm,-,N/A,,Overcast,0,2012-10-15 23:53:00
8:53 PM,60.1,57.9,93,29.66,9.0,WNW,3.5,-,N/A,,Overcast,290,2012-10-16 00:53:00
9:53 PM,59.0,57.9,96,29.68,7.0,Calm,Calm,-,0.00,,Overcast,0,2012-10-16 01:53:00
10:53 PM,60.1,55.9,86,29.69,10.0,WNW,4.6,-,N/A,,Overcast,290,2012-10-16 02:53:00
11:53 PM,57.9,52.0,81,29.68,10.0,NW,5.8,-,0.00,,Overcast,320,2012-10-16 03:53:00